Time,TemperatureF,DewpointF,PressureIn,WindDirection,WindDirectionDegrees,WindSpeedMPH,WindSpeedGustMPH,Humidity,HourlyPrecipIn,Conditions,Clouds,dailyrainin,SoftwareType,DateUTC
2013-05-18 00:00:00,55.1,23.4,29.77,SE,126,0.0,0.0,29,0.00,,,0.00,Wunderground v.1.15,2013-05-18 06:00:00,
2013-05-18 00:02:00,55.1,24.2,29.78,SE,126,0.0,0.0,30,0.00,,,0.00,Wunderground v.1.15,2013-05-18 06:02:00,
2013-05-18 00:06:00,54.7,25.4,29.78,SE,126,0.0,1.0,32,0.00,,,0.00,Wunderground v.1.15,2013-05-18 06:06:00,
2013-05-18 00:08:00,54.5,25.2,29.78,SE,126,0.0,1.0,32,0.00,,,0.00,Wunderground v.1.15,2013-05-18 06:08:00,
2013-05-18 00:10:00,54.4,25.1,29.78,SE,126,0.0,0.0,32,0.00,,,0.00,Wunderground v.1.15,2013-05-18 06:10:00,
2013-05-18 00:12:00,54.2,24.9,29.78,SE,126,0.0,0.0,32,0.00,,,0.00,Wunderground v.1.15,2013-05-18 06:12:00,
2013-05-18 00:14:00,54.1,24.9,29.78,SE,126,0.0,0.0,32,0.00,,,0.00,Wunderground v.1.15,2013-05-18 06:14:00,
2013-05-18 00:16:00,53.8,23.8,29.77,SE,126,0.0,0.0,31,0.00,,,0.00,Wunderground v.1.15,2013-05-18 06:16:00,
2013-05-18 00:22:00,53.5,25.1,29.77,SE,126,0.0,0.0,33,0.00,,,0.00,Wunderground v.1.15,2013-05-18 06:22:00,
2013-05-18 00:24:00,53.3,22.6,29.77,SE,126,0.0,1.0,30,0.00,,,0.00,Wunderground v.1.15,2013-05-18 06:24:00,
2013-05-18 00:26:00,53.5,23.6,29.77,SE,126,0.0,1.0,31,0.00,,,0.00,Wunderground v.1.15,2013-05-18 06:26:00,
2013-05-18 00:32:00,53.3,23.4,29.77,SE,126,0.0,0.0,31,0.00,,,0.00,Wunderground v.1.15,2013-05-18 06:32:00,
2013-05-18 00:34:00,53.3,22.6,29.77,SE,126,0.0,1.0,30,0.00,,,0.00,Wunderground v.1.15,2013-05-18 06:34:00,
2013-05-18 00:36:00,53.3,23.4,29.77,SE,126,0.0,1.0,31,0.00,,,0.00,Wunderground v.1.15,2013-05-18 06:36:00,
2013-05-18 00:38:00,53.2,22.5,29.77,SE,126,0.0,1.0,30,0.00,,,0.00,Wunderground v.1.15,2013-05-18 06:38:00,
2013-05-18 00:40:00,53.2,21.7,29.77,SE,126,0.0,2.0,29,0.00,,,0.00,Wunderground v.1.15,2013-05-18 06:40:00,
2013-05-18 00:46:00,53.3,21.8,29.79,SE,126,0.0,2.0,29,0.00,,,0.00,Wunderground v.1.15,2013-05-18 06:46:00,
2013-05-18 00:48:00,53.2,21.7,29.79,SE,126,1.0,2.0,29,0.00,,,0.00,Wunderground v.1.15,2013-05-18 06:48:00,
2013-05-18 00:50:00,53.2,21.7,29.79,SE,126,1.0,1.0,29,0.00,,,0.00,Wunderground v.1.15,2013-05-18 06:50:00,
2013-05-18 00:52:00,53.2,22.5,29.79,SE,126,0.0,1.0,30,0.00,,,0.00,Wunderground v.1.15,2013-05-18 06:52:00,
2013-05-18 00:54:00,53.2,21.7,29.79,SE,126,0.0,1.0,29,0.00,,,0.00,Wunderground v.1.15,2013-05-18 06:54:00,
2013-05-18 00:56:00,53.2,21.7,29.79,SE,126,0.0,1.0,29,0.00,,,0.00,Wunderground v.1.15,2013-05-18 06:56:00,
2013-05-18 01:02:00,53.1,21.6,29.79,SE,126,0.0,0.0,29,0.00,,,0.00,Wunderground v.1.15,2013-05-18 07:02:00,
2013-05-18 01:04:00,52.9,22.3,29.79,SE,126,0.0,0.0,30,0.00,,,0.00,Wunderground v.1.15,2013-05-18 07:04:00,
2013-05-18 01:06:00,52.9,22.3,29.79,SE,126,0.0,0.0,30,0.00,,,0.00,Wunderground v.1.15,2013-05-18 07:06:00,
2013-05-18 01:08:00,52.8,22.2,29.79,SE,126,0.0,0.0,30,0.00,,,0.00,Wunderground v.1.15,2013-05-18 07:08:00,
2013-05-18 01:12:00,52.8,22.2,29.79,SE,126,0.0,2.0,30,0.00,,,0.00,Wunderground v.1.15,2013-05-18 07:12:00,
2013-05-18 01:14:00,52.6,22.0,29.79,SE,126,0.0,2.0,30,0.00,,,0.00,Wunderground v.1.15,2013-05-18 07:14:00,
2013-05-18 01:16:00,52.6,22.8,29.78,SE,126,0.0,2.0,31,0.00,,,0.00,Wunderground v.1.15,2013-05-18 07:16:00,
2013-05-18 01:18:00,52.6,22.8,29.78,SE,126,0.0,2.0,31,0.00,,,0.00,Wunderground v.1.15,2013-05-18 07:18:00,
2013-05-18 01:24:00,52.3,22.5,29.78,SE,126,0.0,0.0,31,0.00,,,0.00,Wunderground v.1.15,2013-05-18 07:24:00,
2013-05-18 01:26:00,52.2,22.4,29.78,SE,126,0.0,0.0,31,0.00,,,0.00,Wunderground v.1.15,2013-05-18 07:26:00,
2013-05-18 01:28:00,52.2,22.4,29.78,SE,126,0.0,0.0,31,0.00,,,0.00,Wunderground v.1.15,2013-05-18 07:28:00,
2013-05-18 01:30:00,52.0,23.0,29.78,SE,126,0.0,0.0,32,0.00,,,0.00,Wunderground v.1.15,2013-05-18 07:30:00,
2013-05-18 01:32:00,52.0,22.3,29.79,SE,126,0.0,0.0,31,0.00,,,0.00,Wunderground v.1.15,2013-05-18 07:32:00,
2013-05-18 01:36:00,51.9,22.9,29.79,SE,126,0.0,0.0,32,0.00,,,0.00,Wunderground v.1.15,2013-05-18 07:36:00,
2013-05-18 01:38:00,51.9,22.9,29.79,SE,126,0.0,0.0,32,0.00,,,0.00,Wunderground v.1.15,2013-05-18 07:38:00,
2013-05-18 01:40:00,51.9,22.9,29.79,SE,126,0.0,0.0,32,0.00,,,0.00,Wunderground v.1.15,2013-05-18 07:40:00,
2013-05-18 01:44:00,51.9,23.7,29.79,SE,126,0.0,0.0,33,0.00,,,0.00,Wunderground v.1.15,2013-05-18 07:44:00,
2013-05-18 01:46:00,51.9,23.7,29.79,SE,126,0.0,0.0,33,0.00,,,0.00,Wunderground v.1.15,2013-05-18 07:46:00,
2013-05-18 01:50:00,51.7,24.9,29.79,SE,126,0.0,0.0,35,0.00,,,0.00,Wunderground v.1.15,2013-05-18 07:50:00,
2013-05-18 01:54:00,51.6,24.1,29.79,SE,126,0.0,0.0,34,0.00,,,0.00,Wunderground v.1.15,2013-05-18 07:54:00,
2013-05-18 01:56:00,51.4,23.9,29.79,SE,126,0.0,0.0,34,0.00,,,0.00,Wunderground v.1.15,2013-05-18 07:56:00,
2013-05-18 02:00:00,51.6,22.7,29.79,SE,126,0.0,0.0,32,0.00,,,0.00,Wunderground v.1.15,2013-05-18 08:00:00,
2013-05-18 02:04:00,51.7,22.8,29.79,SE,126,0.0,0.0,32,0.00,,,0.00,Wunderground v.1.15,2013-05-18 08:04:00,
2013-05-18 02:06:00,51.9,22.9,29.79,SE,126,0.0,2.0,32,0.00,,,0.00,Wunderground v.1.15,2013-05-18 08:06:00,
2013-05-18 02:08:00,51.9,24.4,29.79,SE,126,1.0,2.0,34,0.00,,,0.00,Wunderground v.1.15,2013-05-18 08:08:00,
2013-05-18 02:12:00,51.9,23.7,29.79,SE,126,1.0,1.0,33,0.00,,,0.00,Wunderground v.1.15,2013-05-18 08:12:00,
2013-05-18 02:14:00,51.9,22.9,29.79,SE,126,1.0,1.0,32,0.00,,,0.00,Wunderground v.1.15,2013-05-18 08:14:00,
2013-05-18 02:18:00,52.0,23.8,29.79,SE,126,0.0,1.0,33,0.00,,,0.00,Wunderground v.1.15,2013-05-18 08:18:00,
2013-05-18 02:20:00,51.9,23.7,29.79,SE,126,0.0,0.0,33,0.00,,,0.00,Wunderground v.1.15,2013-05-18 08:20:00,
2013-05-18 02:22:00,51.9,24.4,29.79,SE,126,0.0,0.0,34,0.00,,,0.00,Wunderground v.1.15,2013-05-18 08:22:00,
2013-05-18 02:24:00,51.9,24.4,29.79,SE,126,0.0,0.0,34,0.00,,,0.00,Wunderground v.1.15,2013-05-18 08:24:00,
2013-05-18 02:30:00,51.6,23.4,29.79,SE,126,0.0,0.0,33,0.00,,,0.00,Wunderground v.1.15,2013-05-18 08:30:00,
2013-05-18 02:34:00,51.6,21.9,29.79,SE,126,0.0,0.0,31,0.00,,,0.00,Wunderground v.1.15,2013-05-18 08:34:00,
2013-05-18 02:36:00,51.7,22.0,29.79,SE,126,0.0,0.0,31,0.00,,,0.00,Wunderground v.1.15,2013-05-18 08:36:00,
2013-05-18 02:38:00,51.7,22.8,29.79,SE,126,0.0,0.0,32,0.00,,,0.00,Wunderground v.1.15,2013-05-18 08:38:00,
2013-05-18 02:44:00,51.9,22.2,29.79,SE,126,0.0,1.0,31,0.00,,,0.00,Wunderground v.1.15,2013-05-18 08:44:00,
2013-05-18 02:46:00,51.9,22.9,29.78,SE,126,0.0,1.0,32,0.00,,,0.00,Wunderground v.1.15,2013-05-18 08:46:00,
2013-05-18 02:52:00,51.9,23.7,29.78,SE,126,0.0,0.0,33,0.00,,,0.00,Wunderground v.1.15,2013-05-18 08:52:00,
2013-05-18 02:56:00,51.7,24.2,29.78,SE,126,0.0,0.0,34,0.00,,,0.00,Wunderground v.1.15,2013-05-18 08:56:00,
2013-05-18 02:58:00,51.4,23.9,29.78,SE,126,0.0,1.0,34,0.00,,,0.00,Wunderground v.1.15,2013-05-18 08:58:00,
2013-05-18 03:00:00,51.4,23.9,29.78,ESE,123,0.0,3.0,34,0.00,,,0.00,Wunderground v.1.15,2013-05-18 09:00:00,
2013-05-18 03:02:00,51.4,24.6,29.79,SE,124,1.0,3.0,35,0.00,,,0.00,Wunderground v.1.15,2013-05-18 09:02:00,
2013-05-18 03:04:00,51.4,23.2,29.79,SE,124,1.0,3.0,33,0.00,,,0.00,Wunderground v.1.15,2013-05-18 09:04:00,
2013-05-18 03:06:00,51.4,22.5,29.79,ESE,123,1.0,3.0,32,0.00,,,0.00,Wunderground v.1.15,2013-05-18 09:06:00,
2013-05-18 03:08:00,51.6,23.4,29.79,ESE,123,1.0,3.0,33,0.00,,,0.00,Wunderground v.1.15,2013-05-18 09:08:00,
2013-05-18 03:12:00,51.7,23.5,29.79,SE,140,0.0,0.0,33,0.00,,,0.00,Wunderground v.1.15,2013-05-18 09:12:00,
2013-05-18 03:14:00,51.7,24.2,29.79,SE,127,1.0,4.0,34,0.00,,,0.00,Wunderground v.1.15,2013-05-18 09:14:00,
2013-05-18 03:16:00,51.9,23.7,29.78,SSE,152,1.0,4.0,33,0.00,,,0.00,Wunderground v.1.15,2013-05-18 09:16:00,
2013-05-18 03:18:00,51.9,23.7,29.78,SW,234,2.0,5.0,33,0.00,,,0.00,Wunderground v.1.15,2013-05-18 09:18:00,
2013-05-18 03:24:00,51.9,23.7,29.78,SW,234,2.0,2.0,33,0.00,,,0.00,Wunderground v.1.15,2013-05-18 09:24:00,
2013-05-18 03:26:00,51.7,23.5,29.78,SW,234,1.0,2.0,33,0.00,,,0.00,Wunderground v.1.15,2013-05-18 09:26:00,
2013-05-18 03:28:00,51.7,23.5,29.78,SE,128,1.0,2.0,33,0.00,,,0.00,Wunderground v.1.15,2013-05-18 09:28:00,
2013-05-18 03:32:00,51.7,23.5,29.79,South,189,1.0,1.0,33,0.00,,,0.00,Wunderground v.1.15,2013-05-18 09:32:00,
2013-05-18 03:34:00,51.7,23.5,29.79,South,190,1.0,1.0,33,0.00,,,0.00,Wunderground v.1.15,2013-05-18 09:34:00,
2013-05-18 03:38:00,51.7,22.8,29.79,South,190,1.0,2.0,32,0.00,,,0.00,Wunderground v.1.15,2013-05-18 09:38:00,
2013-05-18 03:42:00,52.0,23.8,29.79,South,190,1.0,2.0,33,0.00,,,0.00,Wunderground v.1.15,2013-05-18 09:42:00,
2013-05-18 03:44:00,52.0,23.0,29.79,ESE,108,1.0,2.0,32,0.00,,,0.00,Wunderground v.1.15,2013-05-18 09:44:00,
2013-05-18 03:46:00,51.9,23.7,29.80,ESE,109,1.0,2.0,33,0.00,,,0.00,Wunderground v.1.15,2013-05-18 09:46:00,
2013-05-18 03:48:00,51.7,23.5,29.80,ESE,110,1.0,2.0,33,0.00,,,0.00,Wunderground v.1.15,2013-05-18 09:48:00,
2013-05-18 03:50:00,51.7,24.2,29.80,ESE,109,1.0,1.0,34,0.00,,,0.00,Wunderground v.1.15,2013-05-18 09:50:00,
2013-05-18 03:52:00,51.6,24.8,29.80,ESE,109,1.0,1.0,35,0.00,,,0.00,Wunderground v.1.15,2013-05-18 09:52:00,
2013-05-18 03:56:00,51.4,24.6,29.80,ESE,109,1.0,1.0,35,0.00,,,0.00,Wunderground v.1.15,2013-05-18 09:56:00,
2013-05-18 04:00:00,51.3,24.5,29.80,ESE,109,0.0,0.0,35,0.00,,,0.00,Wunderground v.1.15,2013-05-18 10:00:00,
2013-05-18 04:04:00,51.6,24.1,29.80,East,88,1.0,1.0,34,0.00,,,0.00,Wunderground v.1.15,2013-05-18 10:04:00,
2013-05-18 04:06:00,51.7,24.9,29.80,East,88,1.0,1.0,35,0.00,,,0.00,Wunderground v.1.15,2013-05-18 10:06:00,
2013-05-18 04:08:00,51.9,25.1,29.80,ESE,104,1.0,3.0,35,0.00,,,0.00,Wunderground v.1.15,2013-05-18 10:08:00,
2013-05-18 04:12:00,52.2,25.3,29.80,ESE,111,2.0,4.0,35,0.00,,,0.00,Wunderground v.1.15,2013-05-18 10:12:00,
2013-05-18 04:14:00,52.2,25.3,29.80,SE,126,2.0,4.0,35,0.00,,,0.00,Wunderground v.1.15,2013-05-18 10:14:00,
2013-05-18 04:18:00,52.2,26.0,29.81,South,171,2.0,4.0,36,0.00,,,0.00,Wunderground v.1.15,2013-05-18 10:18:00,
2013-05-18 04:20:00,52.2,25.3,29.81,South,171,1.0,1.0,35,0.00,,,0.00,Wunderground v.1.15,2013-05-18 10:20:00,
2013-05-18 04:22:00,52.2,26.0,29.81,South,171,1.0,1.0,36,0.00,,,0.00,Wunderground v.1.15,2013-05-18 10:22:00,
2013-05-18 04:26:00,52.2,25.3,29.81,South,171,0.0,1.0,35,0.00,,,0.00,Wunderground v.1.15,2013-05-18 10:26:00,
2013-05-18 04:28:00,52.0,24.5,29.81,South,171,0.0,1.0,34,0.00,,,0.00,Wunderground v.1.15,2013-05-18 10:28:00,
2013-05-18 04:30:00,52.0,25.2,29.81,South,171,0.0,0.0,35,0.00,,,0.00,Wunderground v.1.15,2013-05-18 10:30:00,
2013-05-18 04:34:00,51.9,24.4,29.81,South,171,0.0,0.0,34,0.00,,,0.00,Wunderground v.1.15,2013-05-18 10:34:00,
2013-05-18 04:40:00,51.9,25.1,29.81,South,171,0.0,0.0,35,0.00,,,0.00,Wunderground v.1.15,2013-05-18 10:40:00,
2013-05-18 04:42:00,51.9,25.1,29.81,South,171,0.0,0.0,35,0.00,,,0.00,Wunderground v.1.15,2013-05-18 10:42:00,
2013-05-18 04:44:00,51.9,25.1,29.81,South,171,0.0,0.0,35,0.00,,,0.00,Wunderground v.1.15,2013-05-18 10:44:00,
2013-05-18 04:46:00,52.0,24.5,29.81,South,171,0.0,0.0,34,0.00,,,0.00,Wunderground v.1.15,2013-05-18 10:46:00,
2013-05-18 04:48:00,52.2,23.9,29.81,South,171,0.0,0.0,33,0.00,,,0.00,Wunderground v.1.15,2013-05-18 10:48:00,
2013-05-18 04:52:00,52.3,24.0,29.81,South,171,1.0,1.0,33,0.00,,,0.00,Wunderground v.1.15,2013-05-18 10:52:00,
2013-05-18 04:54:00,52.5,24.2,29.81,South,171,1.0,1.0,33,0.00,,,0.00,Wunderground v.1.15,2013-05-18 10:54:00,
2013-05-18 05:00:00,52.8,23.7,29.81,South,171,0.0,0.0,32,0.00,,,0.00,Wunderground v.1.15,2013-05-18 11:00:00,
2013-05-18 05:04:00,52.8,25.2,29.82,South,171,0.0,0.0,34,0.00,,,0.00,Wunderground v.1.15,2013-05-18 11:04:00,
2013-05-18 05:06:00,52.8,25.2,29.82,South,171,0.0,5.0,34,0.00,,,0.00,Wunderground v.1.15,2013-05-18 11:06:00,
2013-05-18 05:08:00,52.9,23.8,29.82,South,171,0.0,5.0,32,0.00,,,0.00,Wunderground v.1.15,2013-05-18 11:08:00,
2013-05-18 05:10:00,52.9,23.8,29.82,South,171,1.0,1.0,32,0.00,,,0.00,Wunderground v.1.15,2013-05-18 11:10:00,
2013-05-18 05:12:00,52.9,24.5,29.82,South,171,1.0,2.0,33,0.00,,,0.00,Wunderground v.1.15,2013-05-18 11:12:00,
2013-05-18 05:14:00,52.9,24.5,29.82,South,171,1.0,2.0,33,0.00,,,0.00,Wunderground v.1.15,2013-05-18 11:14:00,
2013-05-18 05:18:00,53.2,24.1,29.81,South,171,1.0,2.0,32,0.00,,,0.00,Wunderground v.1.15,2013-05-18 11:18:00,
2013-05-18 05:20:00,53.3,24.2,29.81,South,171,1.0,1.0,32,0.00,,,0.00,Wunderground v.1.15,2013-05-18 11:20:00,
2013-05-18 05:24:00,53.5,24.3,29.81,South,171,1.0,3.0,32,0.00,,,0.00,Wunderground v.1.15,2013-05-18 11:24:00,
2013-05-18 05:26:00,53.5,25.1,29.81,SW,232,1.0,3.0,33,0.00,,,0.00,Wunderground v.1.15,2013-05-18 11:26:00,
2013-05-18 05:28:00,53.5,24.3,29.81,SSW,193,1.0,3.0,32,0.00,,,0.00,Wunderground v.1.15,2013-05-18 11:28:00,
2013-05-18 05:32:00,53.9,24.7,29.82,South,170,1.0,1.0,32,0.00,,,0.00,Wunderground v.1.15,2013-05-18 11:32:00,
2013-05-18 05:34:00,53.9,24.7,29.82,South,170,1.0,1.0,32,0.00,,,0.00,Wunderground v.1.15,2013-05-18 11:34:00,
2013-05-18 05:40:00,53.9,24.7,29.82,South,171,0.0,0.0,32,0.00,,,0.00,Wunderground v.1.15,2013-05-18 11:40:00,
2013-05-18 05:42:00,53.8,25.3,29.82,South,170,0.0,0.0,33,0.00,,,0.00,Wunderground v.1.15,2013-05-18 11:42:00,
2013-05-18 05:44:00,53.8,25.3,29.82,South,171,0.0,0.0,33,0.00,,,0.00,Wunderground v.1.15,2013-05-18 11:44:00,
2013-05-18 05:46:00,53.8,26.1,29.82,South,171,0.0,0.0,34,0.00,,,0.00,Wunderground v.1.15,2013-05-18 11:46:00,
2013-05-18 05:48:00,53.6,26.6,29.82,South,170,0.0,0.0,35,0.00,,,0.00,Wunderground v.1.15,2013-05-18 11:48:00,
2013-05-18 05:50:00,53.6,26.6,29.82,South,171,0.0,0.0,35,0.00,,,0.00,Wunderground v.1.15,2013-05-18 11:50:00,
2013-05-18 05:52:00,53.5,26.5,29.82,South,170,0.0,1.0,35,0.00,,,0.00,Wunderground v.1.15,2013-05-18 11:52:00,
2013-05-18 05:54:00,53.3,26.3,29.82,South,171,0.0,3.0,35,0.00,,,0.00,Wunderground v.1.15,2013-05-18 11:54:00,
2013-05-18 05:56:00,53.2,26.2,29.82,South,171,0.0,3.0,35,0.00,,,0.00,Wunderground v.1.15,2013-05-18 11:56:00,
2013-05-18 05:58:00,53.1,26.1,29.82,South,170,0.0,3.0,35,0.00,,,0.00,Wunderground v.1.15,2013-05-18 11:58:00,
2013-05-18 06:02:00,52.8,26.6,29.81,South,171,0.0,0.0,36,0.00,,,0.00,Wunderground v.1.15,2013-05-18 12:02:00,
2013-05-18 06:04:00,52.6,26.4,29.81,South,170,0.0,0.0,36,0.00,,,0.00,Wunderground v.1.15,2013-05-18 12:04:00,
2013-05-18 06:06:00,52.5,26.3,29.81,South,171,0.0,0.0,36,0.00,,,0.00,Wunderground v.1.15,2013-05-18 12:06:00,
2013-05-18 06:10:00,52.2,26.7,29.81,South,171,0.0,0.0,37,0.00,,,0.00,Wunderground v.1.15,2013-05-18 12:10:00,
2013-05-18 06:12:00,52.2,27.3,29.81,South,170,0.0,0.0,38,0.00,,,0.00,Wunderground v.1.15,2013-05-18 12:12:00,
2013-05-18 06:16:00,52.0,28.4,29.82,South,171,0.0,0.0,40,0.00,,,0.00,Wunderground v.1.15,2013-05-18 12:16:00,
2013-05-18 06:18:00,51.9,27.7,29.82,South,171,0.0,0.0,39,0.00,,,0.00,Wunderground v.1.15,2013-05-18 12:18:00,
2013-05-18 06:20:00,51.9,28.3,29.82,South,171,0.0,0.0,40,0.00,,,0.00,Wunderground v.1.15,2013-05-18 12:20:00,
2013-05-18 06:22:00,51.7,27.5,29.82,South,170,0.0,0.0,39,0.00,,,0.00,Wunderground v.1.15,2013-05-18 12:22:00,
2013-05-18 06:24:00,51.7,28.1,29.82,South,170,0.0,0.0,40,0.00,,,0.00,Wunderground v.1.15,2013-05-18 12:24:00,
2013-05-18 06:28:00,51.9,28.3,29.82,South,170,0.0,0.0,40,0.00,,,0.00,Wunderground v.1.15,2013-05-18 12:28:00,
2013-05-18 06:30:00,51.9,27.7,29.82,South,170,0.0,0.0,39,0.00,,,0.00,Wunderground v.1.15,2013-05-18 12:30:00,
2013-05-18 06:32:00,52.0,27.8,29.82,South,170,0.0,0.0,39,0.00,,,0.00,Wunderground v.1.15,2013-05-18 12:32:00,
2013-05-18 06:34:00,52.0,29.0,29.82,South,171,0.0,0.0,41,0.00,,,0.00,Wunderground v.1.15,2013-05-18 12:34:00,
2013-05-18 06:36:00,52.2,28.6,29.82,South,171,0.0,0.0,40,0.00,,,0.00,Wunderground v.1.15,2013-05-18 12:36:00,
2013-05-18 06:42:00,52.3,28.1,29.82,South,171,0.0,0.0,39,0.00,,,0.00,Wunderground v.1.15,2013-05-18 12:42:00,
2013-05-18 06:46:00,52.6,29.5,29.83,South,170,0.0,0.0,41,0.00,,,0.00,Wunderground v.1.15,2013-05-18 12:46:00,
2013-05-18 06:48:00,52.6,28.3,29.83,South,171,0.0,0.0,39,0.00,,,0.00,Wunderground v.1.15,2013-05-18 12:48:00,
2013-05-18 06:52:00,53.2,27.6,29.83,South,170,0.0,1.0,37,0.00,,,0.00,Wunderground v.1.15,2013-05-18 12:52:00,
2013-05-18 06:56:00,53.8,29.4,29.83,South,171,0.0,1.0,39,0.00,,,0.00,Wunderground v.1.15,2013-05-18 12:56:00,
2013-05-18 06:58:00,53.9,29.5,29.83,South,171,0.0,1.0,39,0.00,,,0.00,Wunderground v.1.15,2013-05-18 12:58:00,
2013-05-18 07:00:00,54.2,29.1,29.83,South,170,0.0,1.0,38,0.00,,,0.00,Wunderground v.1.15,2013-05-18 13:00:00,
2013-05-18 07:02:00,54.4,29.3,29.82,South,171,0.0,1.0,38,0.00,,,0.00,Wunderground v.1.15,2013-05-18 13:02:00,
2013-05-18 07:04:00,54.5,30.6,29.82,South,171,0.0,1.0,40,0.00,,,0.00,Wunderground v.1.15,2013-05-18 13:04:00,
2013-05-18 07:06:00,54.7,29.6,29.82,South,171,1.0,2.0,38,0.00,,,0.00,Wunderground v.1.15,2013-05-18 13:06:00,
2013-05-18 07:10:00,55.4,28.2,29.82,South,171,1.0,3.0,35,0.00,,,0.00,Wunderground v.1.15,2013-05-18 13:10:00,
2013-05-18 07:12:00,55.9,29.3,29.82,South,171,1.0,3.0,36,0.00,,,0.00,Wunderground v.1.15,2013-05-18 13:12:00,
2013-05-18 07:14:00,56.3,29.0,29.82,South,170,1.0,3.0,35,0.00,,,0.00,Wunderground v.1.15,2013-05-18 13:14:00,
2013-05-18 07:16:00,56.7,29.3,29.82,ESE,119,1.0,3.0,35,0.00,,,0.00,Wunderground v.1.15,2013-05-18 13:16:00,
2013-05-18 07:18:00,57.2,29.1,29.82,SE,145,1.0,3.0,34,0.00,,,0.00,Wunderground v.1.15,2013-05-18 13:18:00,
2013-05-18 07:20:00,57.3,29.1,29.82,SE,145,1.0,3.0,34,0.00,,,0.00,Wunderground v.1.15,2013-05-18 13:20:00,
2013-05-18 07:22:00,57.6,29.4,29.82,SSE,148,1.0,3.0,34,0.00,,,0.00,Wunderground v.1.15,2013-05-18 13:22:00,
2013-05-18 07:26:00,57.8,30.3,29.82,South,176,2.0,6.0,35,0.00,,,0.00,Wunderground v.1.15,2013-05-18 13:26:00,
2013-05-18 07:32:00,57.8,30.3,29.83,South,178,2.0,2.0,35,0.00,,,0.00,Wunderground v.1.15,2013-05-18 13:32:00,
2013-05-18 07:34:00,58.0,30.5,29.83,South,178,2.0,2.0,35,0.00,,,0.00,Wunderground v.1.15,2013-05-18 13:34:00,
2013-05-18 07:40:00,58.1,31.3,29.83,South,178,1.0,1.0,36,0.00,,,0.00,Wunderground v.1.15,2013-05-18 13:40:00,
2013-05-18 07:42:00,58.3,31.4,29.83,South,178,1.0,1.0,36,0.00,,,0.00,Wunderground v.1.15,2013-05-18 13:42:00,
2013-05-18 07:44:00,58.4,30.8,29.83,South,178,1.0,1.0,35,0.00,,,0.00,Wunderground v.1.15,2013-05-18 13:44:00,
2013-05-18 07:46:00,58.6,31.0,29.83,South,178,1.0,1.0,35,0.00,,,0.00,Wunderground v.1.15,2013-05-18 13:46:00,
2013-05-18 07:48:00,58.7,29.6,29.83,South,180,1.0,1.0,33,0.00,,,0.00,Wunderground v.1.15,2013-05-18 13:48:00,
2013-05-18 07:50:00,59.0,29.9,29.83,South,180,1.0,3.0,33,0.00,,,0.00,Wunderground v.1.15,2013-05-18 13:50:00,
2013-05-18 07:52:00,59.3,28.6,29.83,South,181,1.0,3.0,31,0.00,,,0.00,Wunderground v.1.15,2013-05-18 13:52:00,
2013-05-18 07:56:00,59.5,28.8,29.83,South,185,2.0,3.0,31,0.00,,,0.00,Wunderground v.1.15,2013-05-18 13:56:00,
2013-05-18 07:58:00,59.6,28.1,29.83,South,184,2.0,3.0,30,0.00,,,0.00,Wunderground v.1.15,2013-05-18 13:58:00,
2013-05-18 08:02:00,59.6,28.9,29.81,South,185,2.0,2.0,31,0.00,,,0.00,Wunderground v.1.15,2013-05-18 14:02:00,
2013-05-18 08:04:00,59.6,28.9,29.81,South,186,2.0,3.0,31,0.00,,,0.00,Wunderground v.1.15,2013-05-18 14:04:00,
2013-05-18 08:08:00,59.8,29.9,29.81,South,188,1.0,3.0,32,0.00,,,0.00,Wunderground v.1.15,2013-05-18 14:08:00,
2013-05-18 08:12:00,59.9,28.4,29.81,SSW,192,2.0,4.0,30,0.00,,,0.00,Wunderground v.1.15,2013-05-18 14:12:00,
2013-05-18 08:14:00,60.1,27.7,29.81,South,188,2.0,4.0,29,0.00,,,0.00,Wunderground v.1.15,2013-05-18 14:14:00,
2013-05-18 08:16:00,60.2,26.9,29.83,South,190,2.0,4.0,28,0.00,,,0.00,Wunderground v.1.15,2013-05-18 14:16:00,
2013-05-18 08:20:00,60.4,28.0,29.83,South,190,2.0,2.0,29,0.00,,,0.00,Wunderground v.1.15,2013-05-18 14:20:00,
2013-05-18 08:22:00,60.5,30.5,29.83,South,190,1.0,2.0,32,0.00,,,0.00,Wunderground v.1.15,2013-05-18 14:22:00,
2013-05-18 08:26:00,60.5,28.9,29.83,South,190,1.0,3.0,30,0.00,,,0.00,Wunderground v.1.15,2013-05-18 14:26:00,
2013-05-18 08:30:00,61.0,29.3,29.83,SSE,156,2.0,5.0,30,0.00,,,0.00,Wunderground v.1.15,2013-05-18 14:30:00,
2013-05-18 08:32:00,61.3,29.6,29.83,South,186,3.0,5.0,30,0.00,,,0.00,Wunderground v.1.15,2013-05-18 14:32:00,
2013-05-18 08:34:00,61.5,29.7,29.83,South,182,3.0,5.0,30,0.00,,,0.00,Wunderground v.1.15,2013-05-18 14:34:00,
2013-05-18 08:36:00,62.0,31.0,29.83,South,182,4.0,5.0,31,0.00,,,0.00,Wunderground v.1.15,2013-05-18 14:36:00,
2013-05-18 08:38:00,62.3,32.0,29.83,South,182,4.0,5.0,32,0.00,,,0.00,Wunderground v.1.15,2013-05-18 14:38:00,
2013-05-18 08:42:00,62.4,28.8,29.83,South,184,3.0,4.0,28,0.00,,,0.00,Wunderground v.1.15,2013-05-18 14:42:00,
2013-05-18 08:44:00,62.3,28.7,29.83,South,173,3.0,4.0,28,0.00,,,0.00,Wunderground v.1.15,2013-05-18 14:44:00,
2013-05-18 08:46:00,62.3,28.7,29.81,SSW,194,3.0,4.0,28,0.00,,,0.00,Wunderground v.1.15,2013-05-18 14:46:00,
2013-05-18 08:48:00,62.4,28.8,29.81,South,176,3.0,4.0,28,0.00,,,0.00,Wunderground v.1.15,2013-05-18 14:48:00,
2013-05-18 08:54:00,63.1,28.5,29.81,SE,135,3.0,4.0,27,0.00,,,0.00,Wunderground v.1.15,2013-05-18 14:54:00,
2013-05-18 08:56:00,63.2,29.5,29.81,SE,135,3.0,4.0,28,0.00,,,0.00,Wunderground v.1.15,2013-05-18 14:56:00,
2013-05-18 08:58:00,63.4,28.8,29.81,East,100,2.0,5.0,27,0.00,,,0.00,Wunderground v.1.15,2013-05-18 14:58:00,
2013-05-18 09:00:00,63.7,28.1,29.81,ESE,107,2.0,4.0,26,0.00,,,0.00,Wunderground v.1.15,2013-05-18 15:00:00,
2013-05-18 09:02:00,63.5,28.9,29.80,ESE,108,2.0,4.0,27,0.00,,,0.00,Wunderground v.1.15,2013-05-18 15:02:00,
2013-05-18 09:04:00,63.5,28.0,29.80,ESE,108,2.0,4.0,26,0.00,,,0.00,Wunderground v.1.15,2013-05-18 15:04:00,
2013-05-18 09:06:00,63.9,29.2,29.80,ESE,107,2.0,4.0,27,0.00,,,0.00,Wunderground v.1.15,2013-05-18 15:06:00,
2013-05-18 09:10:00,64.5,30.6,29.80,East,99,2.0,2.0,28,0.00,,,0.00,Wunderground v.1.15,2013-05-18 15:10:00,
2013-05-18 09:12:00,65.0,30.2,29.80,East,98,2.0,2.0,27,0.00,,,0.00,Wunderground v.1.15,2013-05-18 15:12:00,
2013-05-18 09:14:00,65.0,30.2,29.80,ESE,102,2.0,2.0,27,0.00,,,0.00,Wunderground v.1.15,2013-05-18 15:14:00,
2013-05-18 09:16:00,64.8,30.0,29.82,ESE,119,2.0,3.0,27,0.00,,,0.00,Wunderground v.1.15,2013-05-18 15:16:00,
2013-05-18 09:20:00,64.3,28.7,29.82,ESE,111,3.0,3.0,26,0.00,,,0.00,Wunderground v.1.15,2013-05-18 15:20:00,
2013-05-18 09:24:00,63.9,29.2,29.82,ESE,106,2.0,3.0,27,0.00,,,0.00,Wunderground v.1.15,2013-05-18 15:24:00,
2013-05-18 09:26:00,63.5,28.0,29.82,ENE,72,3.0,3.0,26,0.00,,,0.00,Wunderground v.1.15,2013-05-18 15:26:00,
2013-05-18 09:28:00,63.4,29.7,29.82,SE,132,3.0,3.0,28,0.00,,,0.00,Wunderground v.1.15,2013-05-18 15:28:00,
2013-05-18 09:32:00,63.1,29.4,29.82,East,80,2.0,3.0,28,0.00,,,0.00,Wunderground v.1.15,2013-05-18 15:32:00,
2013-05-18 09:34:00,62.9,28.4,29.82,East,80,2.0,3.0,27,0.00,,,0.00,Wunderground v.1.15,2013-05-18 15:34:00,
2013-05-18 09:36:00,62.9,29.3,29.82,East,80,2.0,3.0,28,0.00,,,0.00,Wunderground v.1.15,2013-05-18 15:36:00,
2013-05-18 09:38:00,62.9,29.3,29.82,NE,49,1.0,3.0,28,0.00,,,0.00,Wunderground v.1.15,2013-05-18 15:38:00,
2013-05-18 09:42:00,63.1,29.4,29.82,ENE,61,1.0,4.0,28,0.00,,,0.00,Wunderground v.1.15,2013-05-18 15:42:00,
2013-05-18 09:44:00,63.2,28.6,29.82,ENE,61,1.0,4.0,27,0.00,,,0.00,Wunderground v.1.15,2013-05-18 15:44:00,
2013-05-18 09:48:00,63.4,29.7,29.81,ENE,62,1.0,4.0,28,0.00,,,0.00,Wunderground v.1.15,2013-05-18 15:48:00,
2013-05-18 09:50:00,63.4,27.9,29.81,ENE,62,1.0,1.0,26,0.00,,,0.00,Wunderground v.1.15,2013-05-18 15:50:00,
2013-05-18 09:52:00,63.5,27.0,29.81,ENE,63,1.0,1.0,25,0.00,,,0.00,Wunderground v.1.15,2013-05-18 15:52:00,
2013-05-18 09:54:00,63.7,29.1,29.81,ENE,63,0.0,1.0,27,0.00,,,0.00,Wunderground v.1.15,2013-05-18 15:54:00,
2013-05-18 09:58:00,64.0,29.3,29.81,NNE,17,0.0,4.0,27,0.00,,,0.00,Wunderground v.1.15,2013-05-18 15:58:00,
2013-05-18 10:00:00,64.5,30.6,29.81,NE,35,1.0,4.0,28,0.00,,,0.00,Wunderground v.1.15,2013-05-18 16:00:00,
2013-05-18 10:06:00,65.0,29.2,29.79,NNW,338,3.0,4.0,26,0.00,,,0.00,Wunderground v.1.15,2013-05-18 16:06:00,
2013-05-18 10:08:00,64.8,29.1,29.79,NNW,340,3.0,4.0,26,0.00,,,0.00,Wunderground v.1.15,2013-05-18 16:08:00,
2013-05-18 10:14:00,64.7,31.7,29.79,NE,42,2.0,4.0,29,0.00,,,0.00,Wunderground v.1.15,2013-05-18 16:14:00,
2013-05-18 10:16:00,64.8,29.1,29.81,NNW,329,2.0,4.0,26,0.00,,,0.00,Wunderground v.1.15,2013-05-18 16:16:00,
2013-05-18 10:18:00,65.0,29.2,29.81,NNW,329,1.0,4.0,26,0.00,,,0.00,Wunderground v.1.15,2013-05-18 16:18:00,
2013-05-18 10:20:00,65.0,28.3,29.81,NW,311,2.0,2.0,25,0.00,,,0.00,Wunderground v.1.15,2013-05-18 16:20:00,
2013-05-18 10:22:00,65.0,29.2,29.81,NW,319,2.0,2.0,26,0.00,,,0.00,Wunderground v.1.15,2013-05-18 16:22:00,
2013-05-18 10:24:00,64.8,29.1,29.81,West,268,2.0,4.0,26,0.00,,,0.00,Wunderground v.1.15,2013-05-18 16:24:00,
2013-05-18 10:28:00,64.2,29.5,29.81,West,266,2.0,4.0,27,0.00,,,0.00,Wunderground v.1.15,2013-05-18 16:28:00,
2013-05-18 10:30:00,64.2,30.4,29.81,West,265,2.0,2.0,28,0.00,,,0.00,Wunderground v.1.15,2013-05-18 16:30:00,
2013-05-18 10:32:00,64.0,29.3,29.81,WSW,256,1.0,4.0,27,0.00,,,0.00,Wunderground v.1.15,2013-05-18 16:32:00,
2013-05-18 10:36:00,64.0,30.2,29.81,South,186,3.0,5.0,28,0.00,,,0.00,Wunderground v.1.15,2013-05-18 16:36:00,
2013-05-18 10:38:00,64.2,26.6,29.81,WSW,240,3.0,5.0,24,0.00,,,0.00,Wunderground v.1.15,2013-05-18 16:38:00,
2013-05-18 10:42:00,65.0,27.3,29.81,WNW,289,5.0,7.0,24,0.00,,,0.00,Wunderground v.1.15,2013-05-18 16:42:00,
2013-05-18 10:44:00,65.0,25.2,29.81,WSW,243,6.0,11.0,22,0.00,,,0.00,Wunderground v.1.15,2013-05-18 16:44:00,
2013-05-18 10:46:00,64.8,25.0,29.81,SW,215,7.0,11.0,22,0.00,,,0.00,Wunderground v.1.15,2013-05-18 16:46:00,
2013-05-18 10:48:00,64.5,26.9,29.81,SW,232,7.0,12.0,24,0.00,,,0.00,Wunderground v.1.15,2013-05-18 16:48:00,
2013-05-18 10:50:00,64.0,27.4,29.81,SSW,196,8.0,8.0,25,0.00,,,0.00,Wunderground v.1.15,2013-05-18 16:50:00,
2013-05-18 10:56:00,63.7,26.2,29.81,SW,216,7.0,12.0,24,0.00,,,0.00,Wunderground v.1.15,2013-05-18 16:56:00,
2013-05-18 10:58:00,63.7,27.2,29.81,SW,230,6.0,12.0,25,0.00,,,0.00,Wunderground v.1.15,2013-05-18 16:58:00,
2013-05-18 11:00:00,63.7,27.2,29.81,SSW,199,5.0,6.0,25,0.00,,,0.00,Wunderground v.1.15,2013-05-18 17:00:00,
2013-05-18 11:02:00,63.7,26.2,29.81,WSW,249,5.0,10.0,24,0.00,,,0.00,Wunderground v.1.15,2013-05-18 17:02:00,
2013-05-18 11:08:00,64.0,29.3,29.81,SSW,202,4.0,10.0,27,0.00,,,0.00,Wunderground v.1.15,2013-05-18 17:08:00,
2013-05-18 11:10:00,64.5,27.9,29.81,South,183,4.0,5.0,25,0.00,,,0.00,Wunderground v.1.15,2013-05-18 17:10:00,
2013-05-18 11:14:00,65.6,27.8,29.81,West,263,4.0,5.0,24,0.00,,,0.00,Wunderground v.1.15,2013-05-18 17:14:00,
2013-05-18 11:16:00,66.0,27.1,29.82,WSW,255,4.0,5.0,23,0.00,,,0.00,Wunderground v.1.15,2013-05-18 17:16:00,
2013-05-18 11:20:00,66.8,25.6,29.82,WSW,237,5.0,6.0,21,0.00,,,0.00,Wunderground v.1.15,2013-05-18 17:20:00,
2013-05-18 11:22:00,67.3,23.6,29.82,SW,216,5.0,6.0,19,0.00,,,0.00,Wunderground v.1.15,2013-05-18 17:22:00,
2013-05-18 11:24:00,67.6,25.1,29.82,South,179,5.0,6.0,20,0.00,,,0.00,Wunderground v.1.15,2013-05-18 17:24:00,
2013-05-18 11:26:00,68.1,26.7,29.82,SW,215,5.0,9.0,21,0.00,,,0.00,Wunderground v.1.15,2013-05-18 17:26:00,
2013-05-18 11:28:00,68.3,25.6,29.82,South,179,5.0,9.0,20,0.00,,,0.00,Wunderground v.1.15,2013-05-18 17:28:00,
2013-05-18 11:30:00,68.6,24.7,29.82,SSW,199,5.0,5.0,19,0.00,,,0.00,Wunderground v.1.15,2013-05-18 17:30:00,
2013-05-18 11:34:00,68.8,24.8,29.78,South,190,5.0,5.0,19,0.00,,,0.00,Wunderground v.1.15,2013-05-18 17:34:00,
2013-05-18 11:40:00,68.3,25.6,29.78,SSW,208,5.0,6.0,20,0.00,,,0.00,Wunderground v.1.15,2013-05-18 17:40:00,
2013-05-18 11:42:00,68.3,21.8,29.78,South,174,5.0,6.0,17,0.00,,,0.00,Wunderground v.1.15,2013-05-18 17:42:00,
2013-05-18 11:44:00,67.9,21.4,29.78,WSW,248,5.0,10.0,17,0.00,,,0.00,Wunderground v.1.15,2013-05-18 17:44:00,
2013-05-18 11:48:00,68.4,25.7,29.79,WNW,289,5.0,10.0,20,0.00,,,0.00,Wunderground v.1.15,2013-05-18 17:48:00,
2013-05-18 11:50:00,68.6,24.7,29.79,SW,227,5.0,5.0,19,0.00,,,0.00,Wunderground v.1.15,2013-05-18 17:50:00,
2013-05-18 11:52:00,68.9,20.8,29.79,SW,234,4.0,5.0,16,0.00,,,0.00,Wunderground v.1.15,2013-05-18 17:52:00,
2013-05-18 11:54:00,69.3,22.6,29.79,NW,319,4.0,5.0,17,0.00,,,0.00,Wunderground v.1.15,2013-05-18 17:54:00,
2013-05-18 11:56:00,69.6,22.8,29.79,SW,232,3.0,6.0,17,0.00,,,0.00,Wunderground v.1.15,2013-05-18 17:56:00,
2013-05-18 11:58:00,69.1,19.5,29.79,SW,226,4.0,7.0,15,0.00,,,0.00,Wunderground v.1.15,2013-05-18 17:58:00,
2013-05-18 12:00:00,68.6,20.6,29.79,SW,223,4.0,12.0,16,0.00,,,0.00,Wunderground v.1.15,2013-05-18 18:00:00,
2013-05-18 12:02:00,68.3,18.8,29.77,WSW,250,5.0,12.0,15,0.00,,,0.00,Wunderground v.1.15,2013-05-18 18:02:00,
2013-05-18 12:06:00,68.9,22.2,29.77,WSW,246,6.0,12.0,17,0.00,,,0.00,Wunderground v.1.15,2013-05-18 18:06:00,
2013-05-18 12:08:00,68.9,20.8,29.77,SW,234,5.0,12.0,16,0.00,,,0.00,Wunderground v.1.15,2013-05-18 18:08:00,
2013-05-18 12:10:00,68.8,20.7,29.77,NW,311,5.0,5.0,16,0.00,,,0.00,Wunderground v.1.15,2013-05-18 18:10:00,
2013-05-18 12:12:00,68.4,20.4,29.77,WSW,256,4.0,5.0,16,0.00,,,0.00,Wunderground v.1.15,2013-05-18 18:12:00,
2013-05-18 12:14:00,68.3,21.8,29.77,WSW,248,4.0,5.0,17,0.00,,,0.00,Wunderground v.1.15,2013-05-18 18:14:00,
2013-05-18 12:16:00,68.1,21.6,29.79,SW,230,4.0,9.0,17,0.00,,,0.00,Wunderground v.1.15,2013-05-18 18:16:00,
2013-05-18 12:18:00,68.3,20.3,29.79,NW,308,5.0,9.0,16,0.00,,,0.00,Wunderground v.1.15,2013-05-18 18:18:00,
2013-05-18 12:22:00,68.6,20.6,29.79,West,259,6.0,14.0,16,0.00,,,0.00,Wunderground v.1.15,2013-05-18 18:22:00,
2013-05-18 12:24:00,68.9,22.2,29.79,SSW,202,7.0,14.0,17,0.00,,,0.00,Wunderground v.1.15,2013-05-18 18:24:00,
2013-05-18 12:28:00,69.8,24.3,29.79,SW,230,6.0,14.0,18,0.00,,,0.00,Wunderground v.1.15,2013-05-18 18:28:00,
2013-05-18 12:30:00,70.1,20.3,29.79,WSW,238,5.0,5.0,15,0.00,,,0.00,Wunderground v.1.15,2013-05-18 18:30:00,
2013-05-18 12:32:00,70.3,21.9,29.77,WNW,302,4.0,5.0,16,0.00,,,0.00,Wunderground v.1.15,2013-05-18 18:32:00,
2013-05-18 12:36:00,70.9,23.9,29.77,NW,306,4.0,18.0,17,0.00,,,0.00,Wunderground v.1.15,2013-05-18 18:36:00,
2013-05-18 12:38:00,70.9,22.4,29.77,SSW,213,5.0,18.0,16,0.00,,,0.00,Wunderground v.1.15,2013-05-18 18:38:00,
2013-05-18 12:40:00,70.4,23.5,29.77,WSW,246,5.0,5.0,17,0.00,,,0.00,Wunderground v.1.15,2013-05-18 18:40:00,
2013-05-18 12:42:00,70.1,21.8,29.77,West,263,5.0,5.0,16,0.00,,,0.00,Wunderground v.1.15,2013-05-18 18:42:00,
2013-05-18 12:44:00,69.9,21.6,29.77,NW,314,5.0,5.0,16,0.00,,,0.00,Wunderground v.1.15,2013-05-18 18:44:00,
2013-05-18 12:48:00,69.8,23.0,29.77,WSW,257,5.0,12.0,17,0.00,,,0.00,Wunderground v.1.15,2013-05-18 18:48:00,
2013-05-18 12:50:00,69.4,24.0,29.77,West,259,5.0,5.0,18,0.00,,,0.00,Wunderground v.1.15,2013-05-18 18:50:00,
2013-05-18 12:54:00,68.6,20.6,29.77,WSW,238,6.0,7.0,16,0.00,,,0.00,Wunderground v.1.15,2013-05-18 18:54:00,
2013-05-18 12:56:00,68.8,23.5,29.77,WSW,246,6.0,7.0,18,0.00,,,0.00,Wunderground v.1.15,2013-05-18 18:56:00,
2013-05-18 12:58:00,69.1,21.0,29.77,SW,219,6.0,7.0,16,0.00,,,0.00,Wunderground v.1.15,2013-05-18 18:58:00,
2013-05-18 13:02:00,69.9,21.6,29.76,WNW,287,6.0,6.0,16,0.00,,,0.00,Wunderground v.1.15,2013-05-18 19:02:00,
2013-05-18 13:06:00,70.4,22.0,29.76,WSW,238,6.0,6.0,16,0.00,,,0.00,Wunderground v.1.15,2013-05-18 19:06:00,
2013-05-18 13:08:00,70.3,21.9,29.76,West,270,5.0,6.0,16,0.00,,,0.00,Wunderground v.1.15,2013-05-18 19:08:00,
2013-05-18 13:10:00,70.1,20.3,29.76,SW,233,5.0,10.0,15,0.00,,,0.00,Wunderground v.1.15,2013-05-18 19:10:00,
2013-05-18 13:12:00,69.6,19.9,29.76,SW,232,6.0,10.0,15,0.00,,,0.00,Wunderground v.1.15,2013-05-18 19:12:00,
2013-05-18 13:14:00,69.1,21.0,29.76,SW,235,7.0,10.0,16,0.00,,,0.00,Wunderground v.1.15,2013-05-18 19:14:00,
2013-05-18 13:18:00,68.6,22.0,29.77,WSW,239,7.0,14.0,17,0.00,,,0.00,Wunderground v.1.15,2013-05-18 19:18:00,
2013-05-18 13:24:00,68.8,22.2,29.77,SW,225,5.0,7.0,17,0.00,,,0.00,Wunderground v.1.15,2013-05-18 19:24:00,
2013-05-18 13:26:00,69.1,22.4,29.77,West,279,5.0,7.0,17,0.00,,,0.00,Wunderground v.1.15,2013-05-18 19:26:00,
2013-05-18 13:30:00,69.1,21.0,29.77,WSW,238,5.0,5.0,16,0.00,,,0.00,Wunderground v.1.15,2013-05-18 19:30:00,
2013-05-18 13:32:00,68.9,20.8,29.77,SW,235,6.0,7.0,16,0.00,,,0.00,Wunderground v.1.15,2013-05-18 19:32:00,
2013-05-18 13:36:00,69.3,21.1,29.77,WNW,298,7.0,7.0,16,0.00,,,0.00,Wunderground v.1.15,2013-05-18 19:36:00,
2013-05-18 13:38:00,69.6,19.9,29.77,SW,217,7.0,7.0,15,0.00,,,0.00,Wunderground v.1.15,2013-05-18 19:38:00,
2013-05-18 13:40:00,69.6,19.9,29.77,SW,229,7.0,7.0,15,0.00,,,0.00,Wunderground v.1.15,2013-05-18 19:40:00,
2013-05-18 13:42:00,69.4,19.7,29.77,SW,225,6.0,9.0,15,0.00,,,0.00,Wunderground v.1.15,2013-05-18 19:42:00,
2013-05-18 13:44:00,69.1,21.0,29.77,WSW,240,5.0,9.0,16,0.00,,,0.00,Wunderground v.1.15,2013-05-18 19:44:00,
2013-05-18 13:46:00,68.6,20.6,29.76,WSW,257,6.0,9.0,16,0.00,,,0.00,Wunderground v.1.15,2013-05-18 19:46:00,
2013-05-18 13:48:00,68.4,20.4,29.76,NW,317,6.0,9.0,16,0.00,,,0.00,Wunderground v.1.15,2013-05-18 19:48:00,
2013-05-18 13:50:00,68.4,21.8,29.76,WSW,253,6.0,6.0,17,0.00,,,0.00,Wunderground v.1.15,2013-05-18 19:50:00,
2013-05-18 13:52:00,68.8,22.2,29.76,West,281,6.0,14.0,17,0.00,,,0.00,Wunderground v.1.15,2013-05-18 19:52:00,
2013-05-18 13:54:00,69.4,21.2,29.76,SW,225,6.0,14.0,16,0.00,,,0.00,Wunderground v.1.15,2013-05-18 19:54:00,
2013-05-18 13:56:00,70.1,25.9,29.76,WSW,240,6.0,14.0,19,0.00,,,0.00,Wunderground v.1.15,2013-05-18 19:56:00,
2013-05-18 13:58:00,70.8,20.8,29.76,WNW,291,6.0,14.0,15,0.00,,,0.00,Wunderground v.1.15,2013-05-18 19:58:00,
2013-05-18 14:02:00,70.9,23.9,29.75,WSW,254,5.0,9.0,17,0.00,,,0.00,Wunderground v.1.15,2013-05-18 20:02:00,
2013-05-18 14:04:00,71.1,22.6,29.75,SSE,168,5.0,9.0,16,0.00,,,0.00,Wunderground v.1.15,2013-05-18 20:04:00,
2013-05-18 14:06:00,71.1,21.1,29.75,SW,231,5.0,9.0,15,0.00,,,0.00,Wunderground v.1.15,2013-05-18 20:06:00,
2013-05-18 14:12:00,70.1,24.6,29.75,SSW,211,6.0,6.0,18,0.00,,,0.00,Wunderground v.1.15,2013-05-18 20:12:00,
2013-05-18 14:14:00,69.9,25.7,29.75,West,269,6.0,6.0,19,0.00,,,0.00,Wunderground v.1.15,2013-05-18 20:14:00,
2013-05-18 14:16:00,69.9,25.7,29.76,West,281,7.0,7.0,19,0.00,,,0.00,Wunderground v.1.15,2013-05-18 20:16:00,
2013-05-18 14:18:00,69.9,24.4,29.76,WNW,289,7.0,11.0,18,0.00,,,0.00,Wunderground v.1.15,2013-05-18 20:18:00,
2013-05-18 14:22:00,70.4,27.4,29.76,WNW,293,5.0,12.0,20,0.00,,,0.00,Wunderground v.1.15,2013-05-18 20:22:00,
2013-05-18 14:24:00,70.6,25.0,29.76,WNW,290,6.0,12.0,18,0.00,,,0.00,Wunderground v.1.15,2013-05-18 20:24:00,
2013-05-18 14:28:00,70.8,25.2,29.76,NW,304,5.0,17.0,18,0.00,,,0.00,Wunderground v.1.15,2013-05-18 20:28:00,
2013-05-18 14:30:00,70.4,26.1,29.76,West,259,6.0,6.0,19,0.00,,,0.00,Wunderground v.1.15,2013-05-18 20:30:00,
2013-05-18 14:36:00,70.3,27.3,29.76,NW,306,5.0,10.0,20,0.00,,,0.00,Wunderground v.1.15,2013-05-18 20:36:00,
2013-05-18 14:38:00,70.1,28.3,29.76,West,266,6.0,10.0,21,0.00,,,0.00,Wunderground v.1.15,2013-05-18 20:38:00,
2013-05-18 14:40:00,70.3,27.3,29.76,SW,220,6.0,7.0,20,0.00,,,0.00,Wunderground v.1.15,2013-05-18 20:40:00,
2013-05-18 14:42:00,70.3,26.1,29.76,WNW,300,6.0,7.0,19,0.00,,,0.00,Wunderground v.1.15,2013-05-18 20:42:00,
2013-05-18 14:48:00,70.3,26.1,29.75,SW,217,6.0,15.0,19,0.00,,,0.00,Wunderground v.1.15,2013-05-18 20:48:00,
2013-05-18 14:52:00,69.9,25.7,29.75,SW,233,7.0,7.0,19,0.00,,,0.00,Wunderground v.1.15,2013-05-18 20:52:00,
2013-05-18 14:54:00,70.3,24.8,29.75,WSW,244,7.0,8.0,18,0.00,,,0.00,Wunderground v.1.15,2013-05-18 20:54:00,
2013-05-18 14:56:00,70.4,26.1,29.75,SW,233,7.0,9.0,19,0.00,,,0.00,Wunderground v.1.15,2013-05-18 20:56:00,
2013-05-18 14:58:00,70.4,23.5,29.75,SSE,167,7.0,9.0,17,0.00,,,0.00,Wunderground v.1.15,2013-05-18 20:58:00,
2013-05-18 15:02:00,70.1,24.6,29.76,SW,236,7.0,8.0,18,0.00,,,0.00,Wunderground v.1.15,2013-05-18 21:02:00,
2013-05-18 15:06:00,69.4,26.6,29.76,West,262,8.0,8.0,20,0.00,,,0.00,Wunderground v.1.15,2013-05-18 21:06:00,
2013-05-18 15:08:00,69.1,22.4,29.76,WSW,246,8.0,8.0,17,0.00,,,0.00,Wunderground v.1.15,2013-05-18 21:08:00,
2013-05-18 15:12:00,68.4,24.5,29.76,SW,219,7.0,8.0,19,0.00,,,0.00,Wunderground v.1.15,2013-05-18 21:12:00,
2013-05-18 15:14:00,68.3,23.1,29.76,SW,229,7.0,8.0,18,0.00,,,0.00,Wunderground v.1.15,2013-05-18 21:14:00,
2013-05-18 15:16:00,68.4,24.5,29.79,West,264,5.0,8.0,19,0.00,,,0.00,Wunderground v.1.15,2013-05-18 21:16:00,
2013-05-18 15:20:00,68.8,24.8,29.79,WSW,243,4.0,6.0,19,0.00,,,0.00,Wunderground v.1.15,2013-05-18 21:20:00,
2013-05-18 15:24:00,68.8,26.1,29.79,SSW,212,3.0,8.0,20,0.00,,,0.00,Wunderground v.1.15,2013-05-18 21:24:00,
2013-05-18 15:26:00,68.8,26.1,29.79,WSW,241,3.0,8.0,20,0.00,,,0.00,Wunderground v.1.15,2013-05-18 21:26:00,
2013-05-18 15:28:00,68.9,24.9,29.79,WNW,288,3.0,8.0,19,0.00,,,0.00,Wunderground v.1.15,2013-05-18 21:28:00,
2013-05-18 15:32:00,69.4,25.3,29.77,West,259,4.0,4.0,19,0.00,,,0.00,Wunderground v.1.15,2013-05-18 21:32:00,
2013-05-18 15:34:00,69.4,22.7,29.77,WSW,258,3.0,4.0,17,0.00,,,0.00,Wunderground v.1.15,2013-05-18 21:34:00,
2013-05-18 15:36:00,69.3,23.9,29.77,SW,227,3.0,4.0,18,0.00,,,0.00,Wunderground v.1.15,2013-05-18 21:36:00,
2013-05-18 15:38:00,68.9,23.6,29.77,SW,215,3.0,4.0,18,0.00,,,0.00,Wunderground v.1.15,2013-05-18 21:38:00,
2013-05-18 15:42:00,68.4,25.7,29.77,WNW,302,2.0,3.0,20,0.00,,,0.00,Wunderground v.1.15,2013-05-18 21:42:00,
2013-05-18 15:44:00,68.3,25.6,29.77,WSW,247,3.0,3.0,20,0.00,,,0.00,Wunderground v.1.15,2013-05-18 21:44:00,
2013-05-18 15:46:00,68.1,25.5,29.79,WSW,255,3.0,3.0,20,0.00,,,0.00,Wunderground v.1.15,2013-05-18 21:46:00,
2013-05-18 15:50:00,68.1,25.5,29.79,SSW,209,3.0,3.0,20,0.00,,,0.00,Wunderground v.1.15,2013-05-18 21:50:00,
2013-05-18 15:54:00,67.6,25.1,29.79,SW,226,5.0,12.0,20,0.00,,,0.00,Wunderground v.1.15,2013-05-18 21:54:00,
2013-05-18 15:56:00,67.1,23.4,29.79,SW,229,6.0,12.0,19,0.00,,,0.00,Wunderground v.1.15,2013-05-18 21:56:00,
2013-05-18 15:58:00,66.9,24.5,29.79,SW,234,7.0,12.0,20,0.00,,,0.00,Wunderground v.1.15,2013-05-18 21:58:00,
2013-05-18 16:00:00,66.8,24.4,29.79,WSW,252,7.0,7.0,20,0.00,,,0.00,Wunderground v.1.15,2013-05-18 22:00:00,
2013-05-18 16:04:00,66.8,24.4,29.80,SW,229,7.0,7.0,20,0.00,,,0.00,Wunderground v.1.15,2013-05-18 22:04:00,
2013-05-18 16:06:00,66.6,25.4,29.80,WSW,243,6.0,11.0,21,0.00,,,0.00,Wunderground v.1.15,2013-05-18 22:06:00,
2013-05-18 16:10:00,65.8,28.0,29.80,SW,223,8.0,15.0,24,0.00,,,0.00,Wunderground v.1.15,2013-05-18 22:10:00,
2013-05-18 16:12:00,65.2,27.5,29.80,SW,216,10.0,15.0,24,0.00,,,0.00,Wunderground v.1.15,2013-05-18 22:12:00,
2013-05-18 16:16:00,63.7,28.1,29.84,SW,214,11.0,22.0,26,0.00,,,0.00,Wunderground v.1.15,2013-05-18 22:16:00,
2013-05-18 16:20:00,62.6,29.0,29.84,SSW,207,10.0,10.0,28,0.00,,,0.00,Wunderground v.1.15,2013-05-18 22:20:00,
2013-05-18 16:22:00,62.1,30.3,29.84,SW,230,9.0,10.0,30,0.00,,,0.00,Wunderground v.1.15,2013-05-18 22:22:00,
2013-05-18 16:24:00,61.3,31.2,29.84,NNW,338,9.0,10.0,32,0.00,,,0.00,Wunderground v.1.15,2013-05-18 22:24:00,
2013-05-18 16:26:00,60.9,31.6,29.84,WSW,249,7.0,10.0,33,0.00,,,0.00,Wunderground v.1.15,2013-05-18 22:26:00,
2013-05-18 16:28:00,60.5,31.2,29.84,WNW,285,7.0,10.0,33,0.00,,,0.00,Wunderground v.1.15,2013-05-18 22:28:00,
2013-05-18 16:30:00,60.2,31.7,29.84,SW,221,6.0,6.0,34,0.00,,,0.00,Wunderground v.1.15,2013-05-18 22:30:00,
2013-05-18 16:32:00,59.9,32.2,29.86,WSW,244,6.0,6.0,35,0.00,,,0.00,Wunderground v.1.15,2013-05-18 22:32:00,
2013-05-18 16:34:00,59.8,32.1,29.86,SW,227,6.0,6.0,35,0.00,,,0.00,Wunderground v.1.15,2013-05-18 22:34:00,
2013-05-18 16:36:00,59.5,32.5,29.86,NW,317,6.0,6.0,36,0.00,,,0.00,Wunderground v.1.15,2013-05-18 22:36:00,
2013-05-18 16:38:00,59.3,32.3,29.86,WSW,246,6.0,19.0,36,0.00,,,0.00,Wunderground v.1.15,2013-05-18 22:38:00,
2013-05-18 16:42:00,58.9,32.7,29.86,WSW,254,6.0,6.0,37,0.00,,,0.00,Wunderground v.1.15,2013-05-18 22:42:00,
2013-05-18 16:44:00,58.6,32.4,29.86,West,281,5.0,6.0,37,0.00,,,0.00,Wunderground v.1.15,2013-05-18 22:44:00,
2013-05-18 16:48:00,58.1,33.2,29.90,WSW,242,6.0,10.0,39,0.00,,,0.00,Wunderground v.1.15,2013-05-18 22:48:00,
2013-05-18 16:52:00,57.3,33.2,29.90,NW,304,7.0,7.0,40,0.00,,,0.00,Wunderground v.1.15,2013-05-18 22:52:00,
2013-05-18 16:54:00,57.2,33.7,29.90,West,276,7.0,7.0,41,0.00,,,0.00,Wunderground v.1.15,2013-05-18 22:54:00,
2013-05-18 16:56:00,57.2,33.7,29.90,WSW,252,6.0,7.0,41,0.00,,,0.00,Wunderground v.1.15,2013-05-18 22:56:00,
2013-05-18 16:58:00,57.2,33.7,29.90,SW,223,6.0,7.0,41,0.00,,,0.00,Wunderground v.1.15,2013-05-18 22:58:00,
2013-05-18 17:00:00,57.2,33.7,29.90,NW,317,5.0,5.0,41,0.00,,,0.00,Wunderground v.1.15,2013-05-18 23:00:00,
2013-05-18 17:02:00,57.2,33.7,29.90,WNW,292,4.0,5.0,41,0.00,,,0.00,Wunderground v.1.15,2013-05-18 23:02:00,
2013-05-18 17:06:00,57.3,33.2,29.90,NW,311,5.0,6.0,40,0.00,,,0.00,Wunderground v.1.15,2013-05-18 23:06:00,
2013-05-18 17:08:00,57.3,33.2,29.90,NW,319,5.0,9.0,40,0.00,,,0.00,Wunderground v.1.15,2013-05-18 23:08:00,
2013-05-18 17:14:00,57.6,33.4,29.90,West,265,5.0,5.0,40,0.00,,,0.00,Wunderground v.1.15,2013-05-18 23:14:00,
2013-05-18 17:16:00,57.8,33.0,29.89,WNW,300,4.0,5.0,39,0.00,,,0.00,Wunderground v.1.15,2013-05-18 23:16:00,
2013-05-18 17:20:00,58.1,32.6,29.89,WNW,303,2.0,2.0,38,0.00,,,0.00,Wunderground v.1.15,2013-05-18 23:20:00,
2013-05-18 17:24:00,58.3,32.8,29.89,SW,227,2.0,2.0,38,0.00,,,0.00,Wunderground v.1.15,2013-05-18 23:24:00,
2013-05-18 17:26:00,58.4,32.9,29.89,SW,227,1.0,2.0,38,0.00,,,0.00,Wunderground v.1.15,2013-05-18 23:26:00,
2013-05-18 17:28:00,58.6,33.0,29.89,SW,229,1.0,3.0,38,0.00,,,0.00,Wunderground v.1.15,2013-05-18 23:28:00,
2013-05-18 17:30:00,58.9,33.3,29.89,SW,229,1.0,1.0,38,0.00,,,0.00,Wunderground v.1.15,2013-05-18 23:30:00,
2013-05-18 17:32:00,59.0,32.7,29.87,SW,229,1.0,2.0,37,0.00,,,0.00,Wunderground v.1.15,2013-05-18 23:32:00,
2013-05-18 17:34:00,59.2,32.9,29.87,SW,229,1.0,2.0,37,0.00,,,0.00,Wunderground v.1.15,2013-05-18 23:34:00,
2013-05-18 17:36:00,59.3,32.3,29.87,SW,229,1.0,2.0,36,0.00,,,0.00,Wunderground v.1.15,2013-05-18 23:36:00,
2013-05-18 17:42:00,59.9,32.9,29.87,SW,229,0.0,1.0,36,0.00,,,0.00,Wunderground v.1.15,2013-05-18 23:42:00,
2013-05-18 17:44:00,60.1,32.3,29.87,SW,229,0.0,1.0,35,0.00,,,0.00,Wunderground v.1.15,2013-05-18 23:44:00,
2013-05-18 17:50:00,59.9,32.9,29.86,ESE,105,1.0,1.0,36,0.00,,,0.00,Wunderground v.1.15,2013-05-18 23:50:00,
2013-05-18 17:52:00,59.6,33.3,29.86,ENE,75,2.0,3.0,37,0.00,,,0.00,Wunderground v.1.15,2013-05-18 23:52:00,
2013-05-18 17:58:00,58.9,33.3,29.86,East,98,3.0,5.0,38,0.00,,,0.00,Wunderground v.1.15,2013-05-18 23:58:00,
2013-05-18 18:00:00,58.9,34.0,29.86,NE,55,3.0,3.0,39,0.00,,,0.00,Wunderground v.1.15,2013-05-19 00:00:00,
2013-05-18 18:02:00,58.9,33.3,29.86,NE,51,3.0,5.0,38,0.00,,,0.00,Wunderground v.1.15,2013-05-19 00:02:00,
2013-05-18 18:06:00,58.7,33.1,29.86,NE,53,4.0,5.0,38,0.00,,,0.00,Wunderground v.1.15,2013-05-19 00:06:00,
2013-05-18 18:08:00,58.7,33.1,29.86,NE,41,4.0,5.0,38,0.00,,,0.00,Wunderground v.1.15,2013-05-19 00:08:00,
2013-05-18 18:10:00,58.7,32.5,29.86,ENE,71,4.0,4.0,37,0.00,,,0.00,Wunderground v.1.15,2013-05-19 00:10:00,
2013-05-18 18:16:00,58.4,33.5,29.86,East,96,3.0,5.0,39,0.00,,,0.00,Wunderground v.1.15,2013-05-19 00:16:00,
2013-05-18 18:18:00,58.4,33.5,29.86,East,92,2.0,5.0,39,0.00,,,0.00,Wunderground v.1.15,2013-05-19 00:18:00,
2013-05-18 18:20:00,58.3,32.8,29.86,East,91,2.0,2.0,38,0.00,,,0.00,Wunderground v.1.15,2013-05-19 00:20:00,
2013-05-18 18:24:00,58.3,33.4,29.86,ESE,110,1.0,2.0,39,0.00,,,0.00,Wunderground v.1.15,2013-05-19 00:24:00,
2013-05-18 18:26:00,58.3,32.8,29.86,ESE,104,1.0,2.0,38,0.00,,,0.00,Wunderground v.1.15,2013-05-19 00:26:00,
2013-05-18 18:30:00,58.4,32.9,29.86,ENE,67,1.0,2.0,38,0.00,,,0.00,Wunderground v.1.15,2013-05-19 00:30:00,
2013-05-18 18:34:00,58.4,32.9,29.86,NE,56,2.0,4.0,38,0.00,,,0.00,Wunderground v.1.15,2013-05-19 00:34:00,
2013-05-18 18:38:00,58.4,32.9,29.86,ENE,62,2.0,4.0,38,0.00,,,0.00,Wunderground v.1.15,2013-05-19 00:38:00,
2013-05-18 18:40:00,58.4,32.2,29.86,ENE,74,2.0,2.0,37,0.00,,,0.00,Wunderground v.1.15,2013-05-19 00:40:00,
2013-05-18 18:44:00,58.4,31.5,29.86,ENE,70,2.0,3.0,36,0.00,,,0.00,Wunderground v.1.15,2013-05-19 00:44:00,
2013-05-18 18:48:00,58.6,31.7,29.86,East,86,2.0,3.0,36,0.00,,,0.00,Wunderground v.1.15,2013-05-19 00:48:00,
2013-05-18 18:50:00,58.6,32.4,29.86,East,86,2.0,2.0,37,0.00,,,0.00,Wunderground v.1.15,2013-05-19 00:50:00,
2013-05-18 18:52:00,58.6,32.4,29.86,East,81,1.0,2.0,37,0.00,,,0.00,Wunderground v.1.15,2013-05-19 00:52:00,
2013-05-18 18:56:00,58.7,31.8,29.86,East,81,1.0,2.0,36,0.00,,,0.00,Wunderground v.1.15,2013-05-19 00:56:00,
2013-05-18 18:58:00,58.9,31.3,29.86,East,81,1.0,2.0,35,0.00,,,0.00,Wunderground v.1.15,2013-05-19 00:58:00,
2013-05-18 19:00:00,59.0,30.6,29.86,ENE,67,1.0,1.0,34,0.00,,,0.00,Wunderground v.1.15,2013-05-19 01:00:00,
2013-05-18 19:04:00,59.2,30.8,29.86,ENE,70,1.0,1.0,34,0.00,,,0.00,Wunderground v.1.15,2013-05-19 01:04:00,
2013-05-18 19:10:00,59.3,30.2,29.86,ESE,103,0.0,3.0,33,0.00,,,0.00,Wunderground v.1.15,2013-05-19 01:10:00,
2013-05-18 19:14:00,59.5,30.3,29.86,SE,137,1.0,3.0,33,0.00,,,0.00,Wunderground v.1.15,2013-05-19 01:14:00,
2013-05-18 19:16:00,59.6,30.4,29.83,SE,137,1.0,3.0,33,0.00,,,0.00,Wunderground v.1.15,2013-05-19 01:16:00,
2013-05-18 19:18:00,59.6,30.4,29.83,SE,138,1.0,3.0,33,0.00,,,0.00,Wunderground v.1.15,2013-05-19 01:18:00,
2013-05-18 19:22:00,59.6,30.4,29.83,SE,138,1.0,2.0,33,0.00,,,0.00,Wunderground v.1.15,2013-05-19 01:22:00,
2013-05-18 19:24:00,59.6,31.2,29.83,SE,138,1.0,2.0,34,0.00,,,0.00,Wunderground v.1.15,2013-05-19 01:24:00,
2013-05-18 19:26:00,59.6,31.2,29.83,SSE,162,1.0,2.0,34,0.00,,,0.00,Wunderground v.1.15,2013-05-19 01:26:00,
2013-05-18 19:30:00,59.6,30.4,29.83,SE,136,1.0,1.0,33,0.00,,,0.00,Wunderground v.1.15,2013-05-19 01:30:00,
2013-05-18 19:32:00,59.6,29.7,29.82,SE,136,1.0,1.0,32,0.00,,,0.00,Wunderground v.1.15,2013-05-19 01:32:00,
2013-05-18 19:34:00,59.6,28.9,29.82,SSE,152,1.0,1.0,31,0.00,,,0.00,Wunderground v.1.15,2013-05-19 01:34:00,
2013-05-18 19:38:00,59.6,28.9,29.82,SSE,152,1.0,2.0,31,0.00,,,0.00,Wunderground v.1.15,2013-05-19 01:38:00,
2013-05-18 19:42:00,59.5,29.6,29.82,SE,143,1.0,2.0,32,0.00,,,0.00,Wunderground v.1.15,2013-05-19 01:42:00,
2013-05-18 19:44:00,59.3,30.9,29.82,South,176,2.0,13.0,34,0.00,,,0.00,Wunderground v.1.15,2013-05-19 01:44:00,
2013-05-18 19:46:00,58.9,29.8,29.84,South,170,3.0,13.0,33,0.00,,,0.00,Wunderground v.1.15,2013-05-19 01:46:00,
2013-05-18 19:52:00,57.5,30.0,29.84,SE,136,7.0,7.0,35,0.00,,,0.00,Wunderground v.1.15,2013-05-19 01:52:00,
2013-05-18 19:54:00,57.2,29.8,29.84,South,173,7.0,7.0,35,0.00,,,0.00,Wunderground v.1.15,2013-05-19 01:54:00,
2013-05-18 19:58:00,56.7,30.0,29.84,SSE,162,6.0,7.0,36,0.00,,,0.00,Wunderground v.1.15,2013-05-19 01:58:00,
2013-05-18 20:02:00,56.5,30.5,29.85,SSE,160,6.0,10.0,37,0.00,,,0.00,Wunderground v.1.15,2013-05-19 02:02:00,
2013-05-18 20:06:00,55.7,31.1,29.85,SSE,150,6.0,10.0,39,0.00,,,0.00,Wunderground v.1.15,2013-05-19 02:06:00,
2013-05-18 20:08:00,55.6,31.0,29.85,South,185,7.0,10.0,39,0.00,,,0.00,Wunderground v.1.15,2013-05-19 02:08:00,
2013-05-18 20:10:00,55.3,30.7,29.85,South,172,8.0,9.0,39,0.00,,,0.00,Wunderground v.1.15,2013-05-19 02:10:00,
2013-05-18 20:16:00,54.7,31.4,29.84,SE,131,8.0,12.0,41,0.00,,,0.00,Wunderground v.1.15,2013-05-19 02:16:00,
2013-05-18 20:18:00,54.4,31.8,29.84,SSE,161,7.0,12.0,42,0.00,,,0.00,Wunderground v.1.15,2013-05-19 02:18:00,
2013-05-18 20:22:00,53.8,31.8,29.84,South,178,8.0,13.0,43,0.00,,,0.00,Wunderground v.1.15,2013-05-19 02:22:00,
2013-05-18 20:26:00,53.5,31.5,29.84,SSE,147,8.0,13.0,43,0.00,,,0.00,Wunderground v.1.15,2013-05-19 02:26:00,
2013-05-18 20:28:00,53.5,31.5,29.84,SSW,204,8.0,13.0,43,0.00,,,0.00,Wunderground v.1.15,2013-05-19 02:28:00,
2013-05-18 20:34:00,53.2,31.8,29.85,South,174,8.0,9.0,44,0.00,,,0.00,Wunderground v.1.15,2013-05-19 02:34:00,
2013-05-18 20:38:00,52.9,32.1,29.85,SE,128,8.0,14.0,45,0.00,,,0.00,Wunderground v.1.15,2013-05-19 02:38:00,
2013-05-18 20:40:00,52.9,32.1,29.85,South,182,8.0,8.0,45,0.00,,,0.00,Wunderground v.1.15,2013-05-19 02:40:00,
2013-05-18 20:42:00,52.8,32.0,29.85,SE,144,8.0,8.0,45,0.00,,,0.00,Wunderground v.1.15,2013-05-19 02:42:00,
2013-05-18 20:46:00,52.8,32.0,29.84,SSE,159,8.0,10.0,45,0.00,,,0.00,Wunderground v.1.15,2013-05-19 02:46:00,
2013-05-18 20:48:00,52.6,31.8,29.84,South,169,8.0,10.0,45,0.00,,,0.00,Wunderground v.1.15,2013-05-19 02:48:00,
2013-05-18 20:50:00,52.6,31.8,29.84,SSE,151,8.0,9.0,45,0.00,,,0.00,Wunderground v.1.15,2013-05-19 02:50:00,
2013-05-18 20:54:00,52.6,31.8,29.84,South,174,8.0,9.0,45,0.00,,,0.00,Wunderground v.1.15,2013-05-19 02:54:00,
2013-05-18 20:56:00,52.6,32.4,29.84,SSE,155,8.0,9.0,46,0.00,,,0.00,Wunderground v.1.15,2013-05-19 02:56:00,
2013-05-18 21:02:00,52.3,32.1,29.84,SSE,167,6.0,7.0,46,0.00,,,0.00,Wunderground v.1.15,2013-05-19 03:02:00,
2013-05-18 21:04:00,52.3,32.1,29.84,SE,132,6.0,7.0,46,0.00,,,0.00,Wunderground v.1.15,2013-05-19 03:04:00,
2013-05-18 21:08:00,52.2,32.0,29.84,South,177,5.0,10.0,46,0.00,,,0.00,Wunderground v.1.15,2013-05-19 03:08:00,
2013-05-18 21:10:00,52.2,32.0,29.84,SE,142,5.0,5.0,46,0.00,,,0.00,Wunderground v.1.15,2013-05-19 03:10:00,
2013-05-18 21:14:00,52.0,32.4,29.84,SE,132,4.0,5.0,47,0.00,,,0.00,Wunderground v.1.15,2013-05-19 03:14:00,
2013-05-18 21:18:00,51.9,32.3,29.84,SE,143,3.0,5.0,47,0.00,,,0.00,Wunderground v.1.15,2013-05-19 03:18:00,
2013-05-18 21:20:00,51.7,32.6,29.84,ESE,117,3.0,4.0,48,0.00,,,0.00,Wunderground v.1.15,2013-05-19 03:20:00,
2013-05-18 21:24:00,51.6,33.0,29.84,East,96,2.0,4.0,49,0.00,,,0.00,Wunderground v.1.15,2013-05-19 03:24:00,
2013-05-18 21:26:00,51.4,32.9,29.84,SE,136,2.0,4.0,49,0.00,,,0.00,Wunderground v.1.15,2013-05-19 03:26:00,
2013-05-18 21:28:00,51.4,33.4,29.84,SE,140,2.0,4.0,50,0.00,,,0.00,Wunderground v.1.15,2013-05-19 03:28:00,
2013-05-18 21:30:00,51.3,33.3,29.84,SE,140,2.0,2.0,50,0.00,,,0.00,Wunderground v.1.15,2013-05-19 03:30:00,
2013-05-18 21:34:00,51.1,33.1,29.84,SE,124,1.0,4.0,50,0.00,,,0.00,Wunderground v.1.15,2013-05-19 03:34:00,
2013-05-18 21:36:00,51.0,33.0,29.84,ESE,111,1.0,4.0,50,0.00,,,0.00,Wunderground v.1.15,2013-05-19 03:36:00,
2013-05-18 21:40:00,50.8,32.8,29.84,ESE,111,2.0,2.0,50,0.00,,,0.00,Wunderground v.1.15,2013-05-19 03:40:00,
2013-05-18 21:42:00,50.8,32.8,29.84,ESE,112,2.0,2.0,50,0.00,,,0.00,Wunderground v.1.15,2013-05-19 03:42:00,
2013-05-18 21:48:00,50.8,32.8,29.85,East,98,2.0,2.0,50,0.00,,,0.00,Wunderground v.1.15,2013-05-19 03:48:00,
2013-05-18 21:50:00,50.7,32.7,29.85,East,98,2.0,2.0,50,0.00,,,0.00,Wunderground v.1.15,2013-05-19 03:50:00,
2013-05-18 21:52:00,50.7,32.7,29.85,East,98,1.0,2.0,50,0.00,,,0.00,Wunderground v.1.15,2013-05-19 03:52:00,
2013-05-18 21:54:00,50.5,32.5,29.85,East,100,1.0,2.0,50,0.00,,,0.00,Wunderground v.1.15,2013-05-19 03:54:00,
2013-05-18 22:00:00,50.4,32.4,29.85,ESE,113,1.0,3.0,50,0.00,,,0.00,Wunderground v.1.15,2013-05-19 04:00:00,
2013-05-18 22:02:00,50.4,32.4,29.87,SE,127,2.0,9.0,50,0.00,,,0.00,Wunderground v.1.15,2013-05-19 04:02:00,
2013-05-18 22:04:00,50.4,32.4,29.87,ESE,119,2.0,9.0,50,0.00,,,0.00,Wunderground v.1.15,2013-05-19 04:04:00,
2013-05-18 22:06:00,50.4,32.4,29.87,ESE,119,2.0,9.0,50,0.00,,,0.00,Wunderground v.1.15,2013-05-19 04:06:00,
2013-05-18 22:08:00,50.2,32.3,29.87,ESE,119,2.0,9.0,50,0.00,,,0.00,Wunderground v.1.15,2013-05-19 04:08:00,
2013-05-18 22:12:00,50.2,32.3,29.87,ESE,119,1.0,2.0,50,0.00,,,0.00,Wunderground v.1.15,2013-05-19 04:12:00,
2013-05-18 22:16:00,50.2,32.3,29.87,SE,138,1.0,3.0,50,0.00,,,0.00,Wunderground v.1.15,2013-05-19 04:16:00,
2013-05-18 22:18:00,50.2,32.3,29.87,ESE,108,1.0,3.0,50,0.00,,,0.00,Wunderground v.1.15,2013-05-19 04:18:00,
2013-05-18 22:20:00,50.2,32.3,29.87,SE,130,1.0,1.0,50,0.00,,,0.00,Wunderground v.1.15,2013-05-19 04:20:00,
2013-05-18 22:22:00,50.1,32.7,29.87,SE,130,1.0,1.0,51,0.00,,,0.00,Wunderground v.1.15,2013-05-19 04:22:00,
2013-05-18 22:26:00,49.9,32.5,29.87,SE,132,1.0,4.0,51,0.00,,,0.00,Wunderground v.1.15,2013-05-19 04:26:00,
2013-05-18 22:28:00,49.9,32.5,29.87,SE,132,1.0,4.0,51,0.00,,,0.00,Wunderground v.1.15,2013-05-19 04:28:00,
2013-05-18 22:32:00,49.8,32.4,29.88,SE,131,1.0,1.0,51,0.00,,,0.00,Wunderground v.1.15,2013-05-19 04:32:00,
2013-05-18 22:34:00,49.8,32.4,29.88,South,180,1.0,1.0,51,0.00,,,0.00,Wunderground v.1.15,2013-05-19 04:34:00,
2013-05-18 22:38:00,49.8,32.4,29.88,SSE,160,1.0,1.0,51,0.00,,,0.00,Wunderground v.1.15,2013-05-19 04:38:00,
2013-05-18 22:44:00,49.8,32.9,29.88,SSE,160,1.0,2.0,52,0.00,,,0.00,Wunderground v.1.15,2013-05-19 04:44:00,
2013-05-18 22:46:00,49.6,32.7,29.87,SSE,160,1.0,2.0,52,0.00,,,0.00,Wunderground v.1.15,2013-05-19 04:46:00,
2013-05-18 22:48:00,49.6,32.7,29.87,SSE,160,0.0,2.0,52,0.00,,,0.00,Wunderground v.1.15,2013-05-19 04:48:00,
2013-05-18 22:52:00,49.4,32.5,29.87,SSE,160,0.0,0.0,52,0.00,,,0.00,Wunderground v.1.15,2013-05-19 04:52:00,
2013-05-18 22:58:00,49.4,32.5,29.87,SSE,160,0.0,2.0,52,0.00,,,0.00,Wunderground v.1.15,2013-05-19 04:58:00,
2013-05-18 23:00:00,49.5,32.6,29.87,SSE,160,1.0,1.0,52,0.00,,,0.00,Wunderground v.1.15,2013-05-19 05:00:00,
2013-05-18 23:02:00,49.5,32.6,29.87,SSE,159,1.0,1.0,52,0.00,,,0.00,Wunderground v.1.15,2013-05-19 05:02:00,
2013-05-18 23:06:00,49.5,32.6,29.87,SSE,160,1.0,1.0,52,0.00,,,0.00,Wunderground v.1.15,2013-05-19 05:06:00,
2013-05-18 23:08:00,49.4,33.0,29.87,SSE,160,1.0,1.0,53,0.00,,,0.00,Wunderground v.1.15,2013-05-19 05:08:00,
2013-05-18 23:12:00,49.2,32.3,29.87,SSE,159,0.0,0.0,52,0.00,,,0.00,Wunderground v.1.15,2013-05-19 05:12:00,
2013-05-18 23:14:00,49.2,32.3,29.87,SSE,160,0.0,0.0,52,0.00,,,0.00,Wunderground v.1.15,2013-05-19 05:14:00,
2013-05-18 23:16:00,49.1,32.2,29.86,SSE,160,0.0,0.0,52,0.00,,,0.00,Wunderground v.1.15,2013-05-19 05:16:00,
2013-05-18 23:20:00,48.9,32.5,29.86,SSE,160,0.0,0.0,53,0.00,,,0.00,Wunderground v.1.15,2013-05-19 05:20:00,
2013-05-18 23:24:00,48.6,32.7,29.86,SSE,160,0.0,0.0,54,0.00,,,0.00,Wunderground v.1.15,2013-05-19 05:24:00,
2013-05-18 23:26:00,48.3,32.9,29.86,SSE,160,0.0,0.0,55,0.00,,,0.00,Wunderground v.1.15,2013-05-19 05:26:00,
2013-05-18 23:28:00,48.2,32.8,29.86,SSE,159,0.0,1.0,55,0.00,,,0.00,Wunderground v.1.15,2013-05-19 05:28:00,
2013-05-18 23:32:00,48.0,32.6,29.86,SSE,160,0.0,0.0,55,0.00,,,0.00,Wunderground v.1.15,2013-05-19 05:32:00,
2013-05-18 23:34:00,48.2,32.3,29.86,SSE,160,0.0,2.0,54,0.00,,,0.00,Wunderground v.1.15,2013-05-19 05:34:00,
2013-05-18 23:36:00,48.2,32.3,29.86,SSE,160,1.0,2.0,54,0.00,,,0.00,Wunderground v.1.15,2013-05-19 05:36:00,
2013-05-18 23:38:00,48.2,32.8,29.86,SSE,160,0.0,2.0,55,0.00,,,0.00,Wunderground v.1.15,2013-05-19 05:38:00,
2013-05-18 23:40:00,48.2,33.2,29.86,SSE,159,0.0,0.0,56,0.00,,,0.00,Wunderground v.1.15,2013-05-19 05:40:00,
2013-05-18 23:42:00,48.0,32.6,29.86,SSE,159,0.0,0.0,55,0.00,,,0.00,Wunderground v.1.15,2013-05-19 05:42:00,
2013-05-18 23:46:00,48.0,32.6,29.86,SSE,159,0.0,0.0,55,0.00,,,0.00,Wunderground v.1.15,2013-05-19 05:46:00,
2013-05-18 23:48:00,47.9,32.5,29.86,SSE,159,0.0,0.0,55,0.00,,,0.00,Wunderground v.1.15,2013-05-19 05:48:00,
2013-05-18 23:52:00,47.9,32.5,29.86,SSE,160,0.0,1.0,55,0.00,,,0.00,Wunderground v.1.15,2013-05-19 05:52:00,
2013-05-18 23:54:00,47.9,32.9,29.86,SSE,160,0.0,1.0,56,0.00,,,0.00,Wunderground v.1.15,2013-05-19 05:54:00,
2013-05-18 23:56:00,47.9,32.5,29.86,SSE,159,0.0,1.0,55,0.00,,,0.00,Wunderground v.1.15,2013-05-19 05:56:00,